KM4CBK Weather Reports


time (UTC)temp
C
wind
direction
speed
KPH
gust
KPH
rain 1hr
cm
rain 24hr
cm
rain mn
cm
humidity
%
barometer
mb
20260504215744 25 160 0.0 0.0 0.00 0.00 0.00 42 1012.6
20260504215240 25 196 0.0 4.8 0.00 0.00 0.00 41 1012.6
20260504214736 26 90 1.6 6.4 0.00 0.00 0.00 38 1012.8
20260504214233 26 180 1.6 4.8 0.00 0.00 0.00 39 1012.7
20260504213730 26 169 6.4 8.0 0.00 0.00 0.00 40 1012.8
20260504213226 26 195 0.0 6.4 0.00 0.00 0.00 41 1012.7
20260504212723 26 216 0.0 4.8 0.00 0.00 0.00 38 1012.8
20260504212219 27 180 0.0 3.2 0.00 0.00 0.00 37 1012.7
20260504211711 27 195 0.0 3.2 0.00 0.00 0.00 36 1012.8
20260504211207 27 165 0.0 3.2 0.00 0.00 0.00 36 1012.8
20260504210705 26 175 4.8 8.0 0.00 0.00 0.00 36 1013.0
20260504210201 27 8 0.0 6.4 0.00 0.00 0.00 37 1012.9
20260504205659 26 115 3.2 4.8 0.00 0.00 0.00 35 1013.0
20260504205156 27 354 0.0 3.2 0.00 0.00 0.00 38 1013.0
20260504204654 27 73 0.0 4.8 0.00 0.00 0.00 35 1012.9
20260504204153 27 127 3.2 4.8 0.00 0.00 0.00 36 1012.8
20260504203651 27 180 3.2 4.8 0.00 0.00 0.00 36 1013.0
20260504203149 27 90 0.0 4.8 0.00 0.00 0.00 37 1013.0
20260504202643 27 270 0.0 6.4 0.00 0.00 0.00 36 1013.0
20260504202140 27 74 3.2 6.4 0.00 0.00 0.00 36 1013.3
20260504201637 27 159 0.0 6.4 0.00 0.00 0.00 36 1013.2
20260504201135 27 168 1.6 4.8 0.00 0.00 0.00 38 1013.3
20260504200632 27 180 0.0 4.8 0.00 0.00 0.00 37 1013.3
20260504200128 27 231 0.0 4.8 0.00 0.00 0.00 36 1013.7
20260504195624 27 196 3.2 9.7 0.00 0.00 0.00 38 1013.5
20260504195121 27 124 3.2 8.0 0.00 0.00 0.00 36 1013.8
20260504194618 27 349 3.2 6.4 0.00 0.00 0.00 38 1013.7
20260504194113 27 99 1.6 6.4 0.00 0.00 0.00 37 1013.9
20260504193610 27 85 0.0 8.0 0.00 0.00 0.00 39 1014.0
20260504193109 27 135 3.2 9.7 0.00 0.00 0.00 40 1013.7
20260504192606 27 270 0.0 3.2 0.00 0.00 0.00 38 1014.1
20260504192104 27 90 1.6 3.2 0.00 0.00 0.00 38 1014.3
20260504191602 27 144 3.2 6.4 0.00 0.00 0.00 39 1014.0
20260504191058 27 341 3.2 4.8 0.00 0.00 0.00 39 1014.4
20260504190554 28 140 0.0 6.4 0.00 0.00 0.00 36 1014.6
20260504190050 27 76 4.8 4.8 0.00 0.00 0.00 38 1014.4
20260504185548 27 0 3.2 4.8 0.00 0.00 0.00 35 1014.6
20260504185044 27 95 0.0 6.4 0.00 0.00 0.00 37 1014.7
20260504184539 26 75 3.2 4.8 0.00 0.00 0.00 40 1014.6
20260504184035 27 105 0.0 4.8 0.00 0.00 0.00 40 1014.7
20260504183532 26 348 6.4 6.4 0.00 0.00 0.00 40 1014.6
20260504183031 26 168 6.4 6.4 0.00 0.00 0.00 37 1014.8
20260504182527 25 90 6.4 8.0 0.00 0.00 0.00 43 1014.8
20260504182024 25 59 6.4 6.4 0.00 0.00 0.00 38 1015.1
20260504181521 26 79 4.8 6.4 0.00 0.00 0.00 36 1015.0
20260504181020 27 145 0.0 4.8 0.00 0.00 0.00 36 1015.0
20260504180518 27 161 3.2 6.4 0.00 0.00 0.00 39 1015.1
20260504180017 26 102 0.0 4.8 0.00 0.00 0.00 42 1015.3
20260504175513 26 50 0.0 4.8 0.00 0.00 0.00 42 1015.3
20260504175011 26 77 3.2 4.8 0.00 0.00 0.00 39 1015.3
20260504174508 25 133 4.8 4.8 0.00 0.00 0.00 39 1015.3
20260504174005 26 78 3.2 6.4 0.00 0.00 0.00 41 1015.2
20260504173502 25 353 1.6 8.0 0.00 0.00 0.00 43 1015.3
20260504172959 27 251 0.0 8.0 0.00 0.00 0.00 43 1015.5
20260504172455 26 117 0.0 4.8 0.00 0.00 0.00 43 1015.5
20260504171952 24 109 1.6 8.0 0.00 0.00 0.00 41 1015.8
20260504171449 24 97 4.8 4.8 0.00 0.00 0.00 44 1015.6
20260504170946 25 86 4.8 8.0 0.00 0.00 0.00 42 1015.8
20260504170442 25 120 0.0 4.8 0.00 0.00 0.00 42 1015.9
20260504160402 23 152 3.2 4.8 0.00 0.00 0.00 46 1016.7
20260504150826 22 270 3.2 4.8 0.00 0.00 0.00 63 1017.0
20260504150322 21 117 0.0 4.8 0.00 0.00 0.00 62 1017.0
20260504141252 18 90 1.6 3.2 0.00 0.00 0.00 71 1017.3
20260504140749 18 105 0.0 1.6 0.00 0.00 0.00 74 1017.6
20260504140244 17 139 3.2 4.8 0.00 0.00 0.00 74 1017.5
20260504130713 12 21 0.0 3.2 0.00 0.00 0.00 90 1017.6
20260504130209 12 96 3.2 3.2 0.00 0.00 0.00 91 1017.6
20260504120133 8 262 0.0 0.0 0.00 0.00 0.00 99 1017.3
20260504110600 6 157 0.0 0.0 0.00 0.00 0.00 99 1016.7
20260504100522 6 157 0.0 0.0 0.00 0.00 0.00 99 1016.5
20260504081916 7 145 0.0 0.0 0.00 0.00 0.00 99 1016.6
20260504081413 7 145 0.0 0.0 0.00 0.00 0.00 99 1016.7
20260504080908 7 106 0.0 0.0 0.00 0.00 0.00 99 1016.8
20260504080406 7 106 0.0 0.0 0.00 0.00 0.00 99 1016.8
20260504070333 8 188 0.0 0.0 0.00 0.00 0.00 99 1017.1
20260504050721 8 29 0.0 1.6 0.00 0.00 0.00 96 1017.5
20260504050212 8 106 0.0 0.0 0.00 0.00 0.00 96 1017.5
20260504045709 9 106 0.0 0.0 0.00 0.00 0.00 96 1017.2
20260504045204 9 106 0.0 0.0 0.00 0.00 0.00 96 1017.7
20260504044702 9 106 0.0 0.0 0.00 0.00 0.00 96 1017.6
20260504044159 9 166 0.0 1.6 0.00 0.00 0.00 95 1017.5
20260504043656 10 254 0.0 0.0 0.00 0.00 0.00 95 1017.6
20260504043153 10 254 0.0 0.0 0.00 0.00 0.00 95 1017.7
20260504042650 10 254 0.0 0.0 0.00 0.00 0.00 95 1017.9
20260504042146 10 254 0.0 0.0 0.00 0.00 0.00 94 1017.9
20260504041642 10 254 0.0 0.0 0.00 0.00 0.00 94 1018.0
20260504041138 10 254 0.0 0.0 0.00 0.00 0.00 95 1018.0
20260504040636 10 254 0.0 0.0 0.00 0.00 0.00 94 1018.1
20260504040133 10 254 0.0 3.2 0.00 0.00 0.00 95 1018.0
20260504035629 10 246 0.0 0.0 0.00 0.00 0.00 94 1017.8
20260504035126 10 246 0.0 0.0 0.00 0.00 0.00 94 1017.6
20260504034624 10 246 0.0 1.6 0.00 0.00 0.00 94 1017.9
20260504034121 10 254 0.0 1.6 0.00 0.00 0.00 93 1017.9
20260504033618 10 254 0.0 0.0 0.00 0.00 0.00 93 1018.0
20260504033116 10 262 0.0 0.0 0.00 0.00 0.00 92 1017.9
20260504032612 10 262 0.0 0.0 0.00 0.00 0.00 92 1018.0
20260504032109 10 262 0.0 0.0 0.00 0.00 0.00 91 1017.8
20260504031607 11 173 0.0 1.6 0.00 0.00 0.00 91 1017.8
20260504031102 11 246 0.0 1.6 0.00 0.00 0.00 90 1017.9
20260504030600 11 246 0.0 3.2 0.00 0.00 0.00 89 1017.7
20260504030056 11 270 0.0 0.0 0.00 0.00 0.00 88 1017.7
20260504025553 11 270 0.0 0.0 0.00 0.00 0.00 87 1017.8
20260504025050 11 270 0.0 0.0 0.00 0.00 0.00 86 1017.8
20260504024547 11 270 0.0 0.0 0.00 0.00 0.00 85 1017.6
20260504024044 11 270 0.0 0.0 0.00 0.00 0.00 85 1017.6
20260504023540 11 270 0.0 0.0 0.00 0.00 0.00 84 1017.4
20260504023036 11 270 0.0 0.0 0.00 0.00 0.00 84 1017.4
20260504022532 12 270 0.0 0.0 0.00 0.00 0.00 84 1017.4
20260504022029 12 270 0.0 0.0 0.00 0.00 0.00 83 1017.2
20260504021526 12 270 0.0 0.0 0.00 0.00 0.00 83 1017.3
20260504021023 12 270 0.0 0.0 0.00 0.00 0.00 83 1017.3
20260504020520 12 270 0.0 0.0 0.00 0.00 0.00 83 1017.3
20260504020017 12 254 0.0 1.6 0.00 0.00 0.00 82 1017.2
20260504015513 12 261 0.0 0.0 0.00 0.00 0.00 80 1017.0
20260504015009 12 270 0.0 0.0 0.00 0.00 0.00 79 1017.2
20260504014505 12 270 0.0 0.0 0.00 0.00 0.00 77 1016.8
20260504014003 13 270 0.0 0.0 0.00 0.00 0.00 75 1016.8
20260504013501 13 270 0.0 0.0 0.00 0.00 0.00 75 1017.0
20260504012956 13 270 0.0 0.0 0.00 0.00 0.00 72 1016.7
20260504012455 13 270 0.0 0.0 0.00 0.00 0.00 71 1016.8
20260504011952 13 270 0.0 0.0 0.00 0.00 0.00 72 1016.9
20260504011448 13 270 0.0 0.0 0.00 0.00 0.00 70 1017.0
20260504010944 14 270 0.0 0.0 0.00 0.00 0.00 69 1016.6
20260504010440 14 261 0.0 0.0 0.00 0.00 0.00 70 1016.8
20260504005936 14 243 0.0 1.6 0.00 0.00 0.00 68 1016.8
20260504005433 15 270 0.0 0.0 0.00 0.00 0.00 67 1016.8
20260504004931 15 270 0.0 0.0 0.00 0.00 0.00 68 1016.5
20260504004429 15 270 0.0 0.0 0.00 0.00 0.00 65 1016.5
20260504003925 15 261 0.0 0.0 0.00 0.00 0.00 64 1016.4
20260504003422 15 261 0.0 0.0 0.00 0.00 0.00 63 1016.3
20260504002918 16 261 0.0 0.0 0.00 0.00 0.00 64 1016.4
20260504002415 16 261 0.0 0.0 0.00 0.00 0.00 63 1016.3
20260504001913 16 261 0.0 0.0 0.00 0.00 0.00 61 1016.2
20260504001410 17 180 0.0 0.0 0.00 0.00 0.00 59 1016.3
20260504000906 17 180 0.0 0.0 0.00 0.00 0.00 56 1016.3
20260504000404 17 180 0.0 1.6 0.00 0.00 0.00 56 1015.9
20260503235901 18 194 1.6 1.6 0.00 0.00 0.00 54 1016.1
20260503235359 18 90 0.0 0.0 0.00 0.00 0.00 51 1016.1
20260503234856 19 187 0.0 0.0 0.00 0.00 0.00 49 1016.0
20260503234354 19 246 0.0 1.6 0.00 0.00 0.00 47 1016.2
20260503233851 20 240 0.0 0.0 0.00 0.00 0.00 48 1016.1
20260503233348 20 35 0.0 3.2 0.00 0.00 0.00 46 1016.0
20260503232844 20 247 0.0 3.2 0.00 0.00 0.00 48 1016.0
20260503232341 20 18 0.0 1.6 0.00 0.00 0.00 47 1016.2
20260503231839 20 215 0.0 0.0 0.00 0.00 0.00 48 1016.2
20260503231336 20 215 0.0 3.2 0.00 0.00 0.00 43 1016.3
20260503230832 20 209 0.0 0.0 0.00 0.00 0.00 43 1016.2
20260503230329 20 270 0.0 1.6 0.00 0.00 0.00 44 1016.6
20260503225827 20 216 3.2 3.2 0.00 0.00 0.00 43 1016.3
20260503225322 21 304 3.2 3.2 0.00 0.00 0.00 41 1016.4
20260503224819 21 342 4.8 4.8 0.00 0.00 0.00 42 1016.4
20260503224316 21 40 0.0 4.8 0.00 0.00 0.00 42 1016.3
20260503223814 21 195 3.2 4.8 0.00 0.00 0.00 43 1016.3
20260503223311 21 225 0.0 4.8 0.00 0.00 0.00 41 1016.4
20260503222807 21 243 0.0 4.8 0.00 0.00 0.00 45 1016.4
20260503222306 21 90 0.0 1.6 0.00 0.00 0.00 41 1016.3
20260503221803 22 59 0.0 6.4 0.00 0.00 0.00 41 1016.4
20260503221301 22 75 0.0 3.2 0.00 0.00 0.00 39 1016.5
20260503220757 22 90 0.0 4.8 0.00 0.00 0.00 42 1016.4
20260503220254 21 348 3.2 8.0 0.00 0.00 0.00 40 1016.5